Weather in Nukus

Uzbekistan     42°27′37″N   59°37′04″E
temp.,
°C
wind,
m/s
gust,
m/s
humid.,
%
clouds,
%
prec.,
mm/h
press.,
hPa
HPBL,
m
14 may, fri
fri1423:00+24ne512130 0.0 1019240
02:00+21ne511160 0.0 1019203
05:00+20ne411210 0.0 1020181
08:00+23ene610200 0.0 1021393
11:00+29ene79150 0.0 10202085
14:00+31ene78150 0.0 10192653
17:00+32ne88150 0.0 10182919
20:00+28ne610210 0.0 1018400
15 may, sat
sat1523:00+25ne511220 0.0 1018255
02:00+24ene714250 0.0 1018408
05:00+22ne48320 0.0 1018121
08:00+25ne58260 0.0 1019373
11:00+29ene810200 0.0 10182461
14:00+31ne1011140 0.0 10172440
17:00+31ene910100 0.0 10162287
20:00+28ne711130 0.0 1017428
16 may, sun
sun1623:00+25ne512160 0.0 1017272
02:00+23ne613190 0.0 1016285
05:00+20ne512250 0.0 1017235
08:00+24ene711220 0.0 1018963
11:00+28ene1012120 0.0 10181587
14:00+31ene911100 0.0 10162085
17:00+32ene91090 0.0 10152440
20:00+29ene711110 0.0 1015339
17 may, mon
mon1723:00+25ne511150 0.0 1015200
02:00+23ne49180 0.0 1015133
05:00+21ene48200 0.0 1015104
08:00+25ene69160 0.0 1016367
11:00+31ene89120 0.0 10162259
14:00+33ene8890 0.0 10142746
17:00+33ene7890 0.0 10133008
20:00+30ne58120 0.0 1013175
18 may, tue
tue1823:00+25nne612310 0.0 1013239
02:00+23nne510390 0.0 1012176
05:00+22ne46360 0.0 101283
08:00+27ne46250 0.0 1012233
11:00+33ene79110 0.0 10123086
14:00+34ene6690 0.0 10103291
17:00+34ene6680 0.0 10093429
20:00+30nne913170 0.0 1010498